| time (UTC) | temp F | wind direction | speed MPH | gust MPH | rain 1hr in | rain 24hr in | rain mn in | humidity % | barometer mb |
| 20260901031529 | 58 | 144 | 1.0 | 2.0 | 0.00 | 0.14 | 0.00 | 97 | 1029.1 |
| 20260901030524 | 58 | 47 | 1.0 | 2.0 | 0.00 | 0.16 | 0.00 | 96 | 1029.0 |
| 20260901025528 | 58 | 0.0 | 0.0 | 0.00 | 0.22 | 0.00 | 96 | 1029.1 | |
| 20260901024522 | 58 | 335 | 0.0 | 1.0 | 0.00 | 0.22 | 0.00 | 95 | 1029.0 |
| 20260901023524 | 59 | 333 | 1.0 | 1.0 | 0.00 | 0.22 | 0.00 | 95 | 1029.0 |
| 20260901022520 | 59 | 359 | 1.0 | 1.0 | 0.00 | 0.22 | 0.00 | 95 | 1029.0 |
| 20260901021528 | 59 | 24 | 1.0 | 1.0 | 0.00 | 0.22 | 0.00 | 96 | 1029.0 |
| 20260901020521 | 59 | 20 | 0.0 | 1.0 | 0.00 | 0.22 | 0.00 | 96 | 1029.1 |
| 20260901015528 | 59 | 18 | 0.0 | 1.0 | 0.00 | 0.22 | 0.00 | 96 | 1028.9 |
| 20260901014520 | 59 | 18 | 0.0 | 1.0 | 0.00 | 0.22 | 0.00 | 96 | 1028.8 |
| 20260901013528 | 59 | 16 | 0.0 | 1.0 | 0.00 | 0.22 | 0.00 | 97 | 1029.0 |
| 20260901012520 | 59 | 16 | 1.0 | 2.0 | 0.00 | 0.22 | 0.00 | 98 | 1028.9 |
| 20260901011528 | 60 | 0.0 | 0.0 | 0.00 | 0.22 | 0.00 | 99 | 1028.9 | |
| 20260901010520 | 60 | 0.0 | 0.0 | 0.00 | 0.22 | 0.00 | 99 | 1028.9 | |
| 20260901005528 | 60 | 137 | 0.0 | 2.0 | 0.00 | 0.22 | 0.00 | 99 | 1028.8 |
| 20260901004521 | 60 | 223 | 1.0 | 2.0 | 0.00 | 0.22 | 0.00 | 99 | 1028.7 |
| 20260901003528 | 60 | 59 | 1.0 | 2.0 | 0.00 | 0.22 | 0.00 | 98 | 1028.6 |
| 20260901002520 | 60 | 307 | 0.0 | 1.0 | 0.00 | 0.22 | 0.00 | 98 | 1028.6 |
| 20260901001526 | 60 | 307 | 0.0 | 1.0 | 0.00 | 0.22 | 0.00 | 98 | 1028.7 |
| 20260901000552 | 60 | 315 | 1.0 | 2.0 | 0.00 | 0.22 | 0.00 | 99 | 1028.7 |
| 20260831235528 | 61 | 321 | 1.0 | 1.0 | 0.00 | 0.22 | 0.00 | 99 | 1028.6 |
| 20260831234518 | 61 | 271 | 0.0 | 1.0 | 0.00 | 0.22 | 0.00 | 99 | 1028.7 |
| 20260831233528 | 61 | 192 | 1.0 | 3.0 | 0.00 | 0.22 | 0.00 | 98 | 1028.6 |
| 20260831232558 | 61 | 48 | 1.0 | 2.0 | 0.00 | 0.22 | 0.00 | 98 | 1028.5 |
| 20260831231528 | 61 | 280 | 1.0 | 3.0 | 0.00 | 0.22 | 0.00 | 98 | 1028.4 |
| 20260831230521 | 61 | 264 | 1.0 | 2.0 | 0.00 | 0.22 | 0.00 | 98 | 1028.2 |
| 20260831225528 | 61 | 6 | 1.0 | 2.0 | 0.00 | 0.22 | 0.00 | 98 | 1028.4 |
| 20260831224521 | 61 | 333 | 5.0 | 8.0 | 0.00 | 0.22 | 0.00 | 98 | 1028.6 |
| 20260831223528 | 61 | 333 | 2.0 | 3.0 | 0.00 | 0.22 | 0.00 | 97 | 1028.5 |
| 20260831222540 | 61 | 338 | 2.0 | 2.0 | 0.00 | 0.22 | 0.00 | 97 | 1028.3 |
| 20260831221526 | 61 | 306 | 0.0 | 1.0 | 0.00 | 0.22 | 0.00 | 98 | 1028.1 |
| 20260831220521 | 61 | 324 | 2.0 | 3.0 | 0.00 | 0.22 | 0.00 | 98 | 1028.0 |
| 20260831215527 | 61 | 169 | 1.0 | 4.0 | 0.00 | 0.22 | 0.22 | 98 | 1027.9 |
| 20260831214521 | 62 | 131 | 1.0 | 3.0 | 0.00 | 0.22 | 0.22 | 98 | 1028.1 |
| 20260831213533 | 62 | 0.0 | 0.0 | 0.00 | 0.22 | 0.22 | 98 | 1028.0 | |
| 20260831212520 | 62 | 29 | 0.0 | 2.0 | 0.00 | 0.22 | 0.22 | 97 | 1028.1 |
| 20260831211528 | 62 | 3 | 1.0 | 4.0 | 0.00 | 0.22 | 0.22 | 97 | 1028.0 |
| 20260831210541 | 62 | 321 | 2.0 | 3.0 | 0.00 | 0.22 | 0.22 | 97 | 1028.0 |
| 20260831205529 | 62 | 251 | 1.0 | 2.0 | 0.00 | 0.22 | 0.22 | 97 | 1027.8 |
| 20260831204521 | 62 | 39 | 0.0 | 1.0 | 0.00 | 0.22 | 0.22 | 96 | 1027.6 |
| 20260831203528 | 62 | 52 | 1.0 | 2.0 | 0.00 | 0.22 | 0.22 | 96 | 1027.4 |
| 20260831202521 | 62 | 291 | 0.0 | 1.0 | 0.00 | 0.22 | 0.22 | 95 | 1027.3 |
| 20260831201528 | 62 | 284 | 1.0 | 2.0 | 0.00 | 0.22 | 0.22 | 96 | 1027.2 |
| 20260831200520 | 62 | 184 | 1.0 | 2.0 | 0.00 | 0.22 | 0.22 | 96 | 1027.2 |
| 20260831195529 | 62 | 141 | 2.0 | 4.0 | 0.00 | 0.22 | 0.22 | 96 | 1027.2 |
| 20260831194521 | 62 | 314 | 1.0 | 2.0 | 0.00 | 0.22 | 0.22 | 96 | 1027.3 |
| 20260831193529 | 62 | 303 | 1.0 | 2.0 | 0.00 | 0.22 | 0.22 | 96 | 1027.2 |
| 20260831192520 | 62 | 344 | 1.0 | 2.0 | 0.00 | 0.22 | 0.22 | 95 | 1027.1 |
| 20260831191528 | 62 | 258 | 2.0 | 4.0 | 0.00 | 0.22 | 0.22 | 95 | 1026.9 |
| 20260831190520 | 62 | 125 | 2.0 | 4.0 | 0.00 | 0.22 | 0.22 | 94 | 1026.8 |
| 20260831185528 | 63 | 299 | 0.0 | 1.0 | 0.01 | 0.22 | 0.22 | 93 | 1026.7 |
| 20260831184520 | 62 | 274 | 1.0 | 2.0 | 0.03 | 0.22 | 0.22 | 93 | 1026.5 |
| 20260831183528 | 62 | 170 | 2.0 | 3.0 | 0.03 | 0.22 | 0.22 | 93 | 1026.3 |
| 20260831182520 | 62 | 328 | 2.0 | 3.0 | 0.03 | 0.22 | 0.22 | 92 | 1026.1 |
| 20260831181526 | 63 | 333 | 2.0 | 6.0 | 0.03 | 0.22 | 0.22 | 91 | 1025.8 |
| 20260831180521 | 64 | 314 | 2.0 | 4.0 | 0.03 | 0.22 | 0.22 | 88 | 1025.7 |
| 20260831175529 | 65 | 358 | 2.0 | 4.0 | 0.02 | 0.21 | 0.21 | 89 | 1025.6 |
| 20260831174521 | 65 | 329 | 3.0 | 8.0 | 0.00 | 0.19 | 0.19 | 87 | 1025.3 |
| 20260831173529 | 64 | 308 | 2.0 | 3.0 | 0.01 | 0.19 | 0.19 | 90 | 1024.3 |
| 20260831172520 | 65 | 3 | 3.0 | 6.0 | 0.02 | 0.19 | 0.19 | 88 | 1024.2 |
| 20260831171528 | 65 | 326 | 3.0 | 4.0 | 0.03 | 0.19 | 0.19 | 84 | 1024.1 |
| 20260831170521 | 65 | 307 | 2.0 | 6.0 | 0.03 | 0.19 | 0.19 | 88 | 1024.3 |
| 20260831165527 | 66 | 4 | 0.0 | 2.0 | 0.03 | 0.19 | 0.19 | 86 | 1024.4 |
| 20260831164521 | 65 | 86 | 2.0 | 4.0 | 0.03 | 0.19 | 0.19 | 85 | 1024.1 |
| 20260831163549 | 66 | 351 | 2.0 | 3.0 | 0.02 | 0.18 | 0.18 | 84 | 1023.7 |
| 20260831162520 | 66 | 328 | 7.0 | 13.0 | 0.01 | 0.17 | 0.17 | 84 | 1023.5 |
| 20260831161526 | 68 | 325 | 6.0 | 13.0 | 0.03 | 0.16 | 0.16 | 78 | 1023.7 |
| 20260831160521 | 68 | 297 | 5.0 | 9.0 | 0.05 | 0.16 | 0.16 | 77 | 1023.2 |
| 20260831155529 | 68 | 314 | 8.0 | 14.0 | 0.05 | 0.16 | 0.16 | 79 | 1023.2 |
| 20260831154521 | 68 | 335 | 7.0 | 14.0 | 0.05 | 0.16 | 0.16 | 81 | 1022.9 |
| 20260831153517 | 68 | 327 | 6.0 | 11.0 | 0.05 | 0.16 | 0.16 | 81 | 1022.6 |
| 20260831152521 | 68 | 323 | 11.0 | 16.0 | 0.05 | 0.16 | 0.16 | 83 | 1022.3 |
| 20260831151518 | 71 | 319 | 13.0 | 24.0 | 0.02 | 0.13 | 0.13 | 75 | 1021.7 |
| 20260831150517 | 74 | 327 | 12.0 | 21.0 | 0.00 | 0.11 | 0.11 | 66 | 1021.5 |
| 20260831145529 | 75 | 338 | 12.0 | 21.0 | 0.00 | 0.11 | 0.11 | 65 | 1021.6 |
| 20260831144533 | 75 | 325 | 12.0 | 22.0 | 0.00 | 0.11 | 0.11 | 65 | 1021.7 |
| 20260831143533 | 76 | 329 | 11.0 | 19.0 | 0.00 | 0.11 | 0.11 | 64 | 1021.8 |
| 20260831142519 | 76 | 327 | 11.0 | 18.0 | 0.00 | 0.11 | 0.11 | 64 | 1021.7 |
| 20260831141529 | 76 | 315 | 11.0 | 17.0 | 0.00 | 0.11 | 0.11 | 63 | 1021.7 |
| 20260831140520 | 77 | 329 | 8.0 | 16.0 | 0.00 | 0.11 | 0.11 | 63 | 1021.6 |
| 20260831135529 | 77 | 329 | 10.0 | 17.0 | 0.00 | 0.11 | 0.11 | 63 | 1021.7 |
| 20260831134517 | 77 | 323 | 11.0 | 19.0 | 0.00 | 0.11 | 0.11 | 62 | 1021.6 |
| 20260831133549 | 77 | 330 | 7.0 | 16.0 | 0.00 | 0.11 | 0.11 | 63 | 1021.7 |
| 20260831132519 | 77 | 330 | 9.0 | 15.0 | 0.00 | 0.11 | 0.11 | 62 | 1021.6 |
| 20260831131529 | 77 | 325 | 8.0 | 13.0 | 0.00 | 0.11 | 0.11 | 61 | 1021.7 |
| 20260831130519 | 78 | 330 | 10.0 | 18.0 | 0.00 | 0.11 | 0.11 | 60 | 1021.6 |
| 20260831125529 | 78 | 330 | 9.0 | 15.0 | 0.00 | 0.11 | 0.11 | 60 | 1021.7 |
| 20260831124523 | 78 | 332 | 7.0 | 11.0 | 0.00 | 0.11 | 0.11 | 59 | 1021.9 |
| 20260831123519 | 78 | 330 | 7.0 | 11.0 | 0.00 | 0.11 | 0.11 | 58 | 1022.0 |
| 20260831122520 | 79 | 328 | 6.0 | 10.0 | 0.00 | 0.11 | 0.11 | 56 | 1021.9 |
| 20260831121518 | 78 | 323 | 5.0 | 10.0 | 0.00 | 0.11 | 0.11 | 58 | 1022.1 |
| 20260831120521 | 76 | 325 | 5.0 | 9.0 | 0.00 | 0.11 | 0.11 | 62 | 1022.2 |
| 20260831115519 | 76 | 340 | 4.0 | 8.0 | 0.00 | 0.11 | 0.11 | 67 | 1022.2 |
| 20260831114517 | 76 | 323 | 2.0 | 4.0 | 0.00 | 0.11 | 0.11 | 69 | 1022.6 |
| 20260831113529 | 74 | 329 | 3.0 | 7.0 | 0.00 | 0.11 | 0.11 | 70 | 1022.6 |
| 20260831112519 | 75 | 327 | 4.0 | 8.0 | 0.00 | 0.11 | 0.11 | 68 | 1022.8 |
| 20260831111549 | 75 | 333 | 3.0 | 7.0 | 0.00 | 0.11 | 0.11 | 68 | 1022.9 |
| 20260831110519 | 75 | 352 | 3.0 | 6.0 | 0.00 | 0.11 | 0.11 | 68 | 1023.0 |
| 20260831105528 | 75 | 329 | 3.0 | 7.0 | 0.00 | 0.11 | 0.11 | 70 | 1023.1 |
| 20260831104539 | 75 | 115 | 1.0 | 3.0 | 0.00 | 0.11 | 0.11 | 67 | 1023.2 |
| 20260831103529 | 73 | 279 | 1.0 | 3.0 | 0.00 | 0.11 | 0.11 | 70 | 1023.4 |
| 20260831102519 | 74 | 335 | 1.0 | 2.0 | 0.00 | 0.11 | 0.11 | 70 | 1023.5 |
| 20260831101529 | 71 | 23 | 1.0 | 3.0 | 0.00 | 0.11 | 0.11 | 74 | 1023.7 |
| 20260831100518 | 71 | 66 | 1.0 | 2.0 | 0.00 | 0.11 | 0.11 | 77 | 1023.9 |
| 20260831095549 | 70 | 113 | 1.0 | 3.0 | 0.00 | 0.11 | 0.11 | 80 | 1024.0 |
| 20260831094518 | 70 | 148 | 3.0 | 4.0 | 0.00 | 0.11 | 0.11 | 80 | 1024.3 |
| 20260831093549 | 70 | 119 | 1.0 | 3.0 | 0.00 | 0.11 | 0.11 | 81 | 1024.3 |
| 20260831092521 | 69 | 114 | 1.0 | 2.0 | 0.00 | 0.11 | 0.11 | 83 | 1024.5 |
| 20260831091549 | 68 | 95 | 0.0 | 1.0 | 0.00 | 0.11 | 0.11 | 84 | 1024.6 |
| 20260831090521 | 67 | 164 | 0.0 | 1.0 | 0.00 | 0.11 | 0.11 | 86 | 1024.6 |
| 20260831085549 | 67 | 49 | 0.0 | 1.0 | 0.00 | 0.11 | 0.11 | 86 | 1024.7 |
| 20260831084520 | 66 | 326 | 0.0 | 1.0 | 0.00 | 0.11 | 0.11 | 87 | 1024.7 |
| 20260831083529 | 67 | 326 | 1.0 | 2.0 | 0.00 | 0.11 | 0.11 | 88 | 1024.8 |
| 20260831082521 | 66 | 0.0 | 0.0 | 0.00 | 0.11 | 0.11 | 89 | 1024.8 | |
| 20260831081531 | 65 | 327 | 0.0 | 1.0 | 0.00 | 0.11 | 0.11 | 90 | 1024.8 |
| 20260831080553 | 65 | 327 | 0.0 | 1.0 | 0.00 | 0.11 | 0.11 | 92 | 1024.7 |
| 20260831075528 | 64 | 327 | 1.0 | 1.0 | 0.00 | 0.11 | 0.11 | 93 | 1024.8 |
| 20260831074538 | 64 | 330 | 1.0 | 2.0 | 0.00 | 0.11 | 0.11 | 93 | 1024.5 |
| 20260831073529 | 64 | 333 | 0.0 | 1.0 | 0.00 | 0.11 | 0.11 | 94 | 1024.5 |
| 20260831072539 | 64 | 323 | 1.0 | 2.0 | 0.00 | 0.11 | 0.11 | 92 | 1024.4 |
| 20260831071529 | 64 | 299 | 1.0 | 2.0 | 0.00 | 0.11 | 0.11 | 92 | 1024.4 |
| 20260831070519 | 64 | 177 | 2.0 | 6.0 | 0.00 | 0.11 | 0.11 | 92 | 1024.3 |
| 20260831065529 | 64 | 121 | 1.0 | 6.0 | 0.00 | 0.11 | 0.11 | 90 | 1024.3 |
| 20260831064519 | 64 | 293 | 2.0 | 4.0 | 0.00 | 0.11 | 0.11 | 91 | 1024.4 |
| 20260831063529 | 63 | 180 | 2.0 | 6.0 | 0.01 | 0.11 | 0.11 | 93 | 1024.4 |
| 20260831062516 | 63 | 216 | 2.0 | 6.0 | 0.01 | 0.11 | 0.11 | 95 | 1024.3 |
| 20260831061529 | 63 | 195 | 3.0 | 7.0 | 0.03 | 0.11 | 0.11 | 95 | 1024.3 |
| 20260831060519 | 62 | 261 | 2.0 | 4.0 | 0.03 | 0.11 | 0.11 | 96 | 1024.5 |
| 20260831055549 | 62 | 143 | 1.0 | 3.0 | 0.03 | 0.11 | 0.11 | 97 | 1024.6 |
| 20260831054519 | 62 | 0.0 | 0.0 | 0.03 | 0.11 | 0.11 | 97 | 1024.4 | |
| 20260831053529 | 62 | 310 | 0.0 | 1.0 | 0.02 | 0.10 | 0.10 | 97 | 1024.4 |
| 20260831052519 | 62 | 260 | 2.0 | 4.0 | 0.02 | 0.10 | 0.10 | 97 | 1024.3 |
| 20260831051530 | 62 | 348 | 1.0 | 3.0 | 0.00 | 0.08 | 0.08 | 96 | 1024.3 |
| 20260831050519 | 63 | 322 | 1.0 | 3.0 | 0.00 | 0.08 | 0.08 | 96 | 1024.2 |
| 20260831045529 | 63 | 127 | 1.0 | 3.0 | 0.00 | 0.08 | 0.08 | 94 | 1023.9 |
| 20260831044539 | 63 | 215 | 1.0 | 2.0 | 0.00 | 0.08 | 0.08 | 95 | 1023.7 |
| 20260831043529 | 63 | 293 | 0.0 | 2.0 | 0.00 | 0.08 | 0.08 | 95 | 1023.9 |
| 20260831042519 | 63 | 209 | 1.0 | 3.0 | 0.00 | 0.08 | 0.08 | 94 | 1024.0 |
| 20260831041549 | 64 | 84 | 1.0 | 3.0 | 0.00 | 0.08 | 0.08 | 92 | 1024.2 |
| 20260831040539 | 63 | 269 | 3.0 | 6.0 | 0.02 | 0.08 | 0.08 | 94 | 1024.3 |
| 20260831035530 | 63 | 336 | 6.0 | 8.0 | 0.08 | 0.08 | 0.08 | 96 | 1024.1 |
| 20260831034519 | 63 | 158 | 3.0 | 7.0 | 0.08 | 0.08 | 0.08 | 95 | 1023.2 |
| 20260831033529 | 63 | 5 | 0.0 | 1.0 | 0.08 | 0.08 | 0.08 | 96 | 1022.9 |
| 20260831032521 | 63 | 297 | 2.0 | 4.0 | 0.08 | 0.08 | 0.08 | 97 | 1023.1 |